Regional Weather Roundup
Issued by NWS

Home | Current Version | Previous Version | Text Only | Print | Product List | Glossary Off
Versions: 1 2 3 4 5 6 7 8 9 10 11 12 13 14 15 16 17 18 19 20 21 22 23 24 25 26 27 28 29 30 31 32 33 34 35 36 37 38 39 40 41 42 43 44 45 46 47 48 49 50

000
ASUS43 KDTX 161010
RWRMI
MICHIGAN HOURLY REGIONAL WEATHER ROUNDUP
NATIONAL WEATHER SERVICE DETROIT/PONTIAC MI
500 AM EST SAT DEC 16 2017

NOTE: "FAIR" INDICATES FEW OR NO CLOUDS BELOW 12,000 FEET WITH NO
SIGNIFICANT WEATHER AND/OR OBSTRUCTION TO VISIBILITY.

MIZ047>049-052>055-059>063-066>070-074>076-081>083-161100-
SOUTHEAST LOWER MICHIGAN

CITY           SKY/WX    TMP DP  RH WIND       PRES   REMARKS
ADRIAN         CLOUDY    29  22  75 W5        29.90  WCI  24
ALMA           LGT SNOW  23  22  98 CALM      29.88R
ANN ARBOR      FLURRIES  28  25  88 S9        29.88F WCI  19
BAD AXE        CLOUDY    21  16  79 SW5       29.87S WCI  15
CARO           LGT SNOW  22  20  89 W3        29.88S
DETROIT CITY   LGT SNOW  29  25  85 SW14      29.89F FOG     WCI  18
DETROIT        LGT SNOW  32  26  78 SW14      29.90F WCI  22
FLINT          LGT SNOW  23  21  92 CALM      29.87S FOG
GROSSE ILE     CLOUDY    31  25  77 SW9       29.89F WCI  23
HILLSDALE      CLOUDY    30  21  69 SW5       29.86F WCI  25
HOWELL         LGT SNOW  29  28  94 SW6       29.85S WCI  23

CITY           SKY/WX    TMP DP  RH WIND       PRES   REMARKS
JACKSON        CLOUDY    33  23  66 SW15      29.86F WCI  23
LAMBERTVILLE   MOCLDY    33  23  68 SW7       29.91F WCI  26
LANSING        LGT SNOW  25  24  96 E3        29.86S FOG
LAPEER         LGT SNOW  23  22  96 CALM      29.87S
MASON          FLURRIES  31  25  78 SW7       29.85F WCI  24
MONROE         CLOUDY    32  22  68 SW12      29.89F WCI  23
MT. CLEMENS    LGT SNOW  25  25 100 CALM      29.87F FOG
PONTIAC        LGT SNOW  24  24 100 CALM      29.85F FOG
PORT HOPE        N/A     21  15  78 SW8       29.85F WCI  11
PORT HURON     LGT SNOW  23  21  93 CALM      29.89F
TRI CITIES     LGT SNOW  21  21 100 CALM      29.89S VSB 1
MIDLAND        LGT SNOW  21  19  91 CALM      29.88S
TROY           LGT SNOW  29  27  91 SW7       29.89F WCI  22
SAGINAW HB     LGT SNOW  23  21  93 CALM      29.88S
$$
MIZ043>046-050>051-056>058-064>065-071>073-077>080-161100-
SOUTHWEST LOWER MICHIGAN

CITY           SKY/WX    TMP DP  RH WIND       PRES   REMARKS
BATTLE CREEK   CLOUDY    32  23  69 SW12      29.86S WCI  23
BENTON HARBOR  CLOUDY    37  24  59 SW10      29.85F WCI  30
BIG RAPIDS     LGT SNOW  19  17  93 CALM      29.85R
COLDWATER      CLOUDY    33  23  67 SW12G17   29.88S WCI  24
HOLLAND        LGT RAIN  37  31  78 W12       29.84S WCI  29
GRAND RAPIDS   LGT SNOW  26  25  96 NE5       29.84S VSB 1   WCI  20
IONIA          LGT SNOW  25  24  96 E3        29.85R
KALAMAZOO      FLURRIES  34  24  67 SW10      29.86F WCI  26
LUDINGTON      LGT SNOW  22  20  91 E5        29.86R WCI  16
MARSHALL       CLOUDY    31  22  72 SW8       29.86S WCI  23
MOUNT PLEASANT LGT SNOW  21  19  90 CALM      29.86S
MUSKEGON       LGT SNOW  26  23  88 E6        29.85S VSB 1   WCI  19
SOUTH HAVEN    CLOUDY    39  28  63 SW12G24   29.84F WCI  32
$$
MIZ016>042-161100-
NORTHERN LOWER MICHIGAN

CITY           SKY/WX    TMP DP  RH WIND       PRES   REMARKS
ALPENA         FLURRIES  18  13  80 NW6       29.88R WCI  10
BEAVER ISLAND  FLURRIES  16  12  83 NE3       29.88R
BELLAIRE       CLOUDY    19  17  93 CALM      29.88R
CADILLAC       CLOUDY    16  12  84 CALM      29.82R
CHARLEVOIX     CLOUDY    22  14  71 N6        29.90R WCI  15
FRANKFORT      MOCLDY    21  16  80 CALM      29.87S
GAYLORD        CLOUDY    16  11  80 CALM      29.82R
GRAYLING       FLURRIES  18  13  81 CALM      29.84R
HARBOR SPRINGS CLOUDY    16  10  79 E5        29.88R WCI   9
HOUGHTON LAKE  CLOUDY    18  13  80 W3        29.84R
MANISTEE       LGT SNOW  19  16  88 CALM      29.87R FOG
OSCODA         CLOUDY    11   7  84 SW6       29.88R WCI   1
PELLSTON       FLURRIES  15  11  83 N6        29.90R WCI   6
ROGERS CITY    FLURRIES  17  12  81 N10       29.90R WCI   4
TRAVERSE CITY  CLOUDY    21  14  74 SW6       29.87R WCI  13
$$
MIZ007>008-015-161100-
EASTERN UPPER MICHIGAN

CITY           SKY/WX    TMP DP  RH WIND       PRES   REMARKS
KINROSS        CLOUDY     3  -2  79 E7        29.90R WCI  -9
MACKINAC ISLAN PTCLDY    10   3  75 NE12      29.89R WCI  -5
NEWBERRY       CLOUDY     9   9  97 E3        29.88R
S. S. MARIE    CLOUDY     4  -3  73 CALM      29.91R
MUNISING         N/A     13  11  92 SW3       29.88R
$$
MIZ004>006-011>014-085-161100-
CENTRAL UPPER MICHIGAN

CITY           SKY/WX    TMP DP  RH WIND       PRES   REMARKS
MANISTIQUE     FLURRIES   6   1  81 CALM      29.88S
ESCANABA       CLOUDY    12   5  73 NW3       29.89R
MENOMINEE      CLOUDY    13   6  74 N5        29.89S WCI   5
SAWYER-GWINN   CLOUDY     3   0  88 CALM      29.83S
$$
MIZ001>003-009>011-084-161100-
WESTERN UPPER MICHIGAN

CITY           SKY/WX    TMP DP  RH WIND       PRES   REMARKS
IRON MOUNTAIN  CLOUDY    11   5  77 CALM      29.83R
HOUGHTON       CLOUDY    10   3  73 NE6       29.84R WCI   0
COPPER HARBOR    N/A     18  11  74 E7        29.89R WCI   9
IRONWOOD       CLOUDY    11   6  81 E5        29.82R WCI   3
$$

ABBREVIATIONS USED IN REMARKS
   TC - TEMPERATURE IN CELSIUS
  WCI - WIND CHILL INDEX
   HX - HEAT INDEX
  VSB - VISIBILITY





USA.gov is the U.S. government's official web portal to all federal, state and local government web resources and services.